Location: Gipe Farm
(40.9466°N, 95.5370°W)
Time: 14:31:36
(UTC-06:00)

Daily predictions for brighter satellites

Satellite Brightness Start Highest point End
(mag) Time Altitude Azimuth Time Altitude Azimuth Time Altitude Azimuth
Cosmos 1844 Rocket 4.0 17:19:28 10° SW 17:24:44 40° WNW 17:30:01 10° N
Cosmos 1782 3.8 17:24:45 10° SSE 17:28:09 27° E 17:31:32 10° NNE
BREEZE-M R/B 2.4 17:25:50 10° NW 17:28:18 49° NNE 17:31:57 10° ESE
CZ-2C R/B 4.5 17:25:30 10° NNE 17:29:33 32° E 17:33:39 10° SSE
BREEZE-M DEB (TANK) 3.6 17:28:46 10° NNW 17:30:10 16° NNE 17:31:55 10° ENE
CZ-2C R/B 3.3 17:27:40 10° S 17:32:36 58° W 17:37:41 10° NNW
Cosmos 1862 Rocket 3.9 17:29:57 10° SSW 17:34:22 73° W 17:38:52 10° N
Cosmos 44 Rocket 4.3 17:30:18 10° N 17:34:26 27° NE 17:38:36 10° ESE
Cosmos 304 Rocket 3.8 17:30:59 10° NNW 17:35:49 87° WSW 17:40:35 10° SSE
SJ-7 4.4 17:33:46 10° SSE 17:37:53 68° ENE 17:41:58 10° N
Cosmos 2233 Rocket 4.0 17:34:15 10° S 17:40:31 83° E 17:46:45 10° N
Okean 1-7 3.8 17:37:00 10° SSE 17:40:53 32° E 17:44:49 10° NNE
CSL-04 Debris 4.2 17:41:52 10° SSE 17:47:17 85° ENE 17:52:43 10° NNW
Sich 1 Rocket 3.6 17:44:01 10° N 17:48:25 59° E 17:52:49 10° SSE
Cosmos 1763 Rocket 4.0 17:44:49 10° NNW 17:49:58 64° WSW 17:55:01 10° S
Lacrosse 5 4.0 17:50:13 10° NW 17:52:43 13° N 17:55:13 10° NNE
Cosmos 44 3.7 17:49:40 10° NNW 17:54:06 40° NE 17:58:43 10° ESE
Cosmos 1833 Rocket 2.8 17:49:19 10° NNW 17:54:51 55° ENE 18:00:21 10° SE
AQUARIUS 4.2 17:52:46 10° SSE 17:57:15 86° WSW 18:01:47 10° NNW
MTI 4.3 17:56:07 10° NNE 17:59:09 37° E 18:02:10 10° SSE
Meteor 1-10 Rocket 4.4 17:53:42 10° SSE 17:59:10 52° E 18:04:47 10° NNE
CORIOLIS 4.2 17:58:07 10° SSE 18:03:35 89° W 18:09:03 10° NNW
USA 116 3.7 18:00:13 10° NNE 18:04:34 75° ESE 18:08:20 10° S
Cosmos 2297 3.7 17:59:16 10° SSW 18:04:55 69° ESE 18:10:38 10° NNE
Cosmos 1782 Rocket 3.5 18:02:26 10° N 18:06:46 66° E 18:11:06 10° SSE
Cosmos 2278 Rocket 3.1 18:01:46 10° SW 18:07:15 49° WNW 18:12:46 10° NNE
Cosmos 405 3.8 18:04:36 10° NNE 18:07:49 29° ENE 18:10:59 10° SE
SL-27 R/B 3.0 18:06:05 10° NNW 18:09:23 56° WSW 18:12:40 10° S
ALOS 2.8 18:06:12 10° SE 18:10:23 34° ENE 18:14:37 10° N
Cosmos 540 Rocket 3.4 18:05:22 10° NNW 18:10:34 74° ENE 18:15:42 10° SSE
YAOGAN 1 2.4 18:08:24 10° SSE 18:12:42 76° ENE 18:17:03 10° N
Meteor 1-28 Rocket 3.5 18:09:45 10° N 18:13:27 67° WNW 18:17:08 10° SSW
COSMO-SKYMED 1 2.7 18:09:51 10° NNE 18:14:07 52° E 18:18:20 10° S
Tiangong 1 2.5 18:13:44 10° SSW 18:15:40 19° SSE 18:15:53 18° SE
SMAP 3.9 18:12:13 10° S 18:16:45 53° W 18:21:19 10° NNW
Intercosmos 25 4.5 18:09:08 10° S 18:17:19 90° WNW 18:22:12 10° N
Cosmos 968 Rocket 4.0 18:13:09 10° SSE 18:17:52 37° E 18:20:41 21° NE
COSMOS 2487 4.1 18:15:21 10° N 18:16:47 18° NNE 18:16:47 18° NNE
USA 234 3.7 18:14:26 19° ENE 18:18:43 42° SE 18:24:50 10° SSW
Cosmos 1606 3.1 18:17:30 10° SSW 18:21:14 61° W 18:24:59 10° N
Cosmos 1441 Rocket 3.4 18:18:38 10° S 18:22:26 47° E 18:24:29 23° NNE
Ariane Rocket 4.2 18:18:19 10° S 18:23:09 44° W 18:28:01 10° NNW
Cosmos 1503 Rocket 4.1 18:18:10 10° SSW 18:23:27 78° WNW 18:28:41 10° NNE
Cosmos 1891 Rocket 4.4 18:18:53 10° S 18:24:58 69° E 18:31:00 10° NNE
CZ-4C R/B 3.1 18:18:26 10° NNW 18:25:21 51° NE 18:32:49 11° ESE
Landsat 4 4.0 18:22:38 10° N 18:26:26 69° WNW 18:30:12 10° SSW
Meteor 1-11 Rocket 3.8 18:24:12 10° N 18:29:56 55° ENE 18:35:31 10° SSE
METEOR-M 4.2 18:28:36 10° SSE 18:33:56 84° WSW 18:39:19 10° NNW
EO 1 Del DPAF 3.1 18:32:19 15° NNE 18:35:26 90° E 18:39:14 10° SSW
Cosmos 2221 Rocket 4.0 18:34:20 10° SSW 18:38:41 62° W 18:43:05 10° N
Nadezhda 4 Rocket 4.0 18:33:15 10° N 18:39:16 55° E 18:45:14 10° SSE
ERS-2 2.7 18:38:10 10° S 18:41:48 58° WSW 18:45:26 10° NNW
Cosmos 2151 Rocket 3.6 18:37:39 10° N 18:41:58 51° E 18:46:17 10° SSE
Meteor 2-20 4.3 18:37:47 10° N 18:43:53 76° E 18:49:56 10° SSE
CZ-4 R/B 3.4 18:42:05 10° SSW 18:45:25 28° W 18:48:46 10° NW
BREEZE-M DEB (TANK) 3.2 18:44:34 10° NW 18:46:38 32° NNE 18:46:38 32° NNE
OAO 3 Rocket 4.2 18:42:57 10° SW 18:47:26 35° SSE 18:48:44 30° SE
Cosmos 2082 Rocket 2.8 18:41:52 10° NNW 18:47:26 57° WSW 18:52:55 10° S
Cosmos 2034 Rocket 4.0 18:41:42 10° S 18:48:04 89° E 18:54:27 10° N
Cosmos 1602 4.0 18:48:05 10° NNW 18:51:55 65° W 18:55:43 10° S
Okean 2 Rocket 3.7 18:50:22 10° NNW 18:54:49 57° W 18:59:14 10° S
Timation 2 Rocket 4.0 18:51:08 10° NNW 18:57:55 72° ENE 19:03:16 16° SE
Cosmos 405 Rocket 3.7 18:54:31 10° SSW 18:58:10 45° WNW 19:00:28 20° NNW
Cosmos 1092 Rocket 4.0 18:52:21 10° N 18:58:24 54° E 19:04:26 10° SSE
Centaur D AC-28 4.4 18:56:11 10° SW 19:01:35 39° SSE 19:11:43 23° ESE
USA 229 DEB 3.6 19:02:07 10° SSW 19:08:45 63° ESE 19:10:13 51° ENE
USA 229 3.6 19:02:14 10° SSW 19:08:51 62° ESE 19:10:16 51° ENE
SPOT 3 Rocket 4.3 19:07:50 10° S 19:12:55 52° W 19:18:00 10° NNW
Cosmos 44 Rocket 4.4 19:11:28 10° NW 19:16:06 43° WSW 19:20:49 10° S
FengYun 1-2 T 4.0 19:11:07 10° SSE 19:16:37 78° ENE 19:22:12 10° N
FENGYUN 3A 4.3 19:13:51 10° S 19:19:09 55° W 19:24:28 10° NNW
Meteor 1-5 Rocket 4.1 19:21:09 10° NNW 19:26:29 77° W 19:31:45 10° S
Lacrosse 5 4.3 19:34:38 10° NNW 19:35:34 13° NNW 19:35:34 13° NNW
Cosmos 2369 Rocket 3.2 19:36:13 10° SSW 19:39:26 36° SSW 19:39:26 36° SSW
Thor Agena Rocket 4.3 19:45:29 45° SW 19:45:29 45° SW 19:49:10 10° SSW
ALOS 4.5 19:44:08 10° SSW 19:47:52 23° W 19:51:38 10° NW
USA 234 3.6 20:01:48 58° NNW 20:01:50 58° NW 20:08:12 10° WSW
CZ-4C R/B 4.0 20:07:10 10° NW 20:13:59 41° WSW 20:18:12 24° SSW
